This is the latest recevied weather packets stored in our database for station/object KI4FRU. If no packets are shown the sender has not sent any weather packets the latest 10 day(s).
| Time | Temp. | Humidity | Pressure | Rain* | Wind** | Luminosity | Snow |
|---|---|---|---|---|---|---|---|
| 1777932335 | 26.11° C | 43% | 1052.3 hPa | 0 mm | - | 179 W/m² | - |
| 1777932032 | 26.67° C | 43% | 1052.2 hPa | 0 mm | - | 179 W/m² | - |
| 1777931728 | 27.78° C | 43% | 1052.3 hPa | 0 mm | - | 204 W/m² | - |
| 1777931426 | 27.78° C | 42% | 1052.4 hPa | 0 mm | - | 216 W/m² | - |
| 1777931122 | 27.78° C | 40% | 1052.3 hPa | 0 mm | - | 261 W/m² | - |
| 1777930818 | 27.78° C | 40% | 1052.3 hPa | 0 mm | - | 257 W/m² | - |
| 1777930514 | 28.33° C | 40% | 1052.2 hPa | 0 mm | - | 132 W/m² | - |
| 1777930212 | 28.89° C | 40% | 1052.3 hPa | 0 mm | - | 212 W/m² | - |
| 1777929907 | 28.33° C | 42% | 1052.4 hPa | 0 mm | - | 311 W/m² | - |
| 1777929605 | 28.33° C | 40% | 1052.3 hPa | 0 mm | - | 141 W/m² | - |
| 1777929301 | 28.33° C | 41% | 1052.3 hPa | 0 mm | - | 264 W/m² | - |
| 1777928999 | 28.33° C | 42% | 1052.4 hPa | 0 mm | - | 333 W/m² | - |
| 1777928696 | 28.33° C | 40% | 1052.3 hPa | 0 mm | - | 366 W/m² | - |
| 1777928393 | 30° C | 42% | 1052.3 hPa | 0 mm | - | 93 W/m² | - |
| 1777928090 | 27.78° C | 41% | 1052.5 hPa | 0 mm | - | 385 W/m² | - |
| 1777927788 | 28.89° C | 43% | 1052.6 hPa | 0 mm | - | 90 W/m² | - |
| 1777927481 | 28.33° C | 40% | 1052.5 hPa | 0 mm | - | 417 W/m² | - |
| 1777927180 | 28.33° C | 42% | 1052.5 hPa | 0 mm | - | 437 W/m² | - |
| 1777926877 | 29.44° C | 41% | 1052.6 hPa | 0 mm | - | 428 W/m² | - |
| 1777926573 | 28.89° C | 40% | 1052.7 hPa | 0 mm | - | 460 W/m² | - |
| 1777926270 | 28.89° C | 39% | 1052.6 hPa | 0 mm | - | 467 W/m² | - |
| 1777925967 | 28.33° C | 42% | 1052.9 hPa | 0 mm | - | 488 W/m² | - |
| 1777925664 | 28.89° C | 39% | 1052.9 hPa | 0 mm | - | 500 W/m² | - |
| 1777925361 | 28.33° C | 42% | 1052.9 hPa | 0 mm | - | 427 W/m² | - |
| 1777925057 | 28.33° C | 42% | 1052.9 hPa | 0 mm | - | 427 W/m² | - |
* Rain latest hour (hover to see other rain measurements)
** Current wind speed in m/s (hover to see current wind gust speed)